EW4288 Weather Reports


time (UTC)temp
C
wind
direction
speed
KPH
gust
KPH
rain 1hr
cm
rain 24hr
cm
rain mn
cm
humidity
%
barometer
mb
20260505073049 12 69 3.2 6.4 0.00 0.00 0.00 61 1006.1
20260505071551 15 88 4.8 12.9 0.00 0.00 0.00 50 1006.0
20260505070039 15 123 4.8 8.0 0.00 0.00 0.00 50 1005.8
20260505064541 15 87 1.6 9.7 0.00 0.00 0.00 50 1005.7
20260505063038 15 70 4.8 12.9 0.00 0.00 0.00 49 1005.5
20260505061537 15 69 6.4 9.7 0.00 0.00 0.00 50 1005.6
20260505060037 15 78 6.4 9.7 0.00 0.00 0.00 50 1005.5
20260505054550 16 73 4.8 9.7 0.00 0.00 0.00 49 1005.4
20260505053052 16 107 4.8 11.3 0.00 0.00 0.00 48 1005.2
20260505051541 15 61 4.8 8.0 0.00 0.00 0.00 50 1005.2
20260505041534 17 159 1.6 8.0 0.00 0.00 0.00 47 1004.7
20260505040041 17 190 1.6 3.2 0.00 0.00 0.00 44 1004.5
20260505034533 18 72 1.6 4.8 0.00 0.00 0.00 42 1004.3
20260505033040 19 105 1.6 8.0 0.00 0.00 0.00 39 1004.2
20260505031533 20 55 4.8 16.1 0.00 0.00 0.00 36 1004.1
20260505030033 20 65 4.8 11.3 0.00 0.00 0.00 35 1003.9
20260505024532 21 61 6.4 17.7 0.00 0.00 0.00 35 1003.9
20260505023031 21 57 9.7 17.7 0.00 0.00 0.00 33 1003.8
20260505021532 22 64 9.7 25.7 0.00 0.00 0.00 33 1003.7
20260505020031 22 80 6.4 19.3 0.00 0.00 0.00 32 1003.6
20260505014530 22 94 8.0 22.5 0.00 0.00 0.00 31 1003.6
20260505013030 23 34 11.3 20.9 0.00 0.00 0.00 30 1003.6
20260505011529 23 63 11.3 20.9 0.00 0.00 0.00 30 1003.7
20260505010029 23 68 11.3 22.5 0.00 0.00 0.00 30 1003.7
20260505004528 23 52 9.7 20.9 0.00 0.00 0.00 32 1003.7
20260505003027 24 54 9.7 24.1 0.00 0.00 0.00 29 1003.6
20260505001527 25 74 11.3 22.5 0.00 0.00 0.00 30 1003.6
20260505000028 25 73 12.9 22.5 0.00 0.00 0.00 29 1003.6
20260504234526 25 37 6.4 19.3 0.00 0.00 0.00 30 1003.6
20260504233025 24 80 8.0 24.1 0.00 0.00 0.00 31 1003.7
20260504231523 26 94 9.7 25.7 0.00 0.00 0.00 30 1003.6
20260504230026 26 59 4.8 20.9 0.00 0.00 0.00 33 1003.8
20260504224521 25 103 6.4 16.1 0.00 0.00 0.00 31 1003.8
20260504223019 25 47 6.4 20.9 0.00 0.00 0.00 32 1003.9
20260504221522 25 69 6.4 22.5 0.00 0.00 0.00 32 1004.0
20260504220022 26 11 11.3 22.5 0.00 0.00 0.00 31 1003.9
20260504214517 25 56 6.4 16.1 0.00 0.00 0.00 31 1004.1
20260504213015 25 69 4.8 16.1 0.00 0.00 0.00 31 1004.2
20260504211512 25 55 8.0 14.5 0.00 0.00 0.00 33 1004.3
20260504210011 25 5 6.4 17.7 0.00 0.00 0.00 36 1004.3
20260504204511 25 42 8.0 16.1 0.00 0.00 0.00 35 1004.5
20260504203011 25 108 4.8 16.1 0.00 0.00 0.00 34 1004.5
20260504201507 24 101 4.8 14.5 0.00 0.00 0.00 34 1004.6
20260504200006 23 51 4.8 16.1 0.00 0.00 0.00 34 1004.6
20260504194504 24 95 8.0 16.1 0.00 0.00 0.00 34 1004.7
20260504193003 23 59 9.7 20.9 0.00 0.00 0.00 36 1004.8
20260504191501 23 109 8.0 17.7 0.00 0.00 0.00 35 1005.0
20260504190111 22 75 9.7 20.9 0.00 0.00 0.00 36 1005.0
20260504184615 23 65 9.7 19.3 0.00 0.00 0.00 39 1005.2
20260504183101 22 76 11.3 20.9 0.00 0.00 0.00 39 1005.2
20260504181556 22 70 9.7 24.1 0.00 0.00 0.00 39 1005.3
20260504180054 22 73 8.0 14.5 0.00 0.00 0.00 41 1005.3
20260504174552 21 35 6.4 17.7 0.00 0.00 0.00 41 1005.4
20260504173055 20 46 9.7 24.1 0.00 0.00 0.00 43 1005.4
20260504171547 18 76 11.3 19.3 0.00 0.00 0.00 44 1005.4
20260504081537 11 63 0.0 4.8 0.00 0.00 0.00 71 1004.6